Location: Unspecified
(0.0000°N, 0.0000°E)
Time: 03:51:55
(UTC+00:00)

Vanguard 1 - Pass Details

Date: 10 December 2023
Orbit: 653 x 3826 km, 34.3° (Epoch: 22 February)

Event Time Altitude Azimuth Distance (km) Brightness Sun altitude
Rises 01:30:11 0° 300° (WNW) 7,955 - -57.0°
Reaches altitude 10° 01:35:56 10° 298° (WNW) 6,829 - -56.0°
Maximum altitude 01:57:18 64° 221° (SW) 3,013 - -52.0°
Exits shadow 02:00:11 57° 182° (S) 2,927 12.2 -51.4°
Drops below altitude 10° 02:09:52 10° 140° (SE) 4,260 13.8 -49.5°
Sets 02:12:34 0° 136° (SE) 4,928 14.3 -49.0°
